Location: Unspecified
(0.0000°N, 0.0000°E)
Time: 23:15:50
(UTC+00:00)

Vanguard 2 - Visible Passes

Search period start: 19 November 2019 00:00
Search period end: 29 November 2019 00:00
Orbit: 554 x 2937 km, 32.9° (Epoch: 18 November)

Date Brightness Start Highest point End Pass type
(mag) Time Alt. Az. Time Alt. Az. Time Alt. Az.
19 Nov 11.3 01:36:39 10° SSW 01:51:29 33° SSE 02:05:43 10° E visible
19 Nov 10.3 03:47:42 10° SW 04:05:46 73° SE 04:19:19 10° ENE visible
19 Nov 11.0 19:19:06 10° SW 19:23:16 15° SSW 19:28:33 10° SSE visible
19 Nov 11.7 21:36:09 10° S 21:37:42 10° S 21:39:19 10° S visible
19 Nov 11.7 23:45:01 10° SSW 23:54:36 18° SSE 00:05:16 10° ESE visible
20 Nov 11.0 01:54:20 10° SW 02:10:21 42° SSE 02:25:17 10° E visible
20 Nov 10.1 04:05:52 10° SW 04:24:04 90° NNW 04:37:28 10° NE visible
20 Nov 11.2 19:40:05 10° SSW 19:42:17 11° S 19:44:44 10° S visible
20 Nov 11.7 21:55:48 10° S 21:57:25 10° S 21:59:05 10° SSE visible
21 Nov 11.5 00:02:40 10° SSW 00:13:58 23° SSE 00:26:30 10° ESE visible
21 Nov 10.7 02:12:03 10° SW 02:28:59 52° SSE 02:44:24 10° ENE visible
21 Nov 10.1 04:24:18 10° WSW 04:42:14 73° NW 04:55:23 10° NE visible
21 Nov 11.7 22:13:12 10° S 22:17:07 11° SSE 22:21:25 10° SSE visible
22 Nov 11.3 00:20:14 10° SSW 00:33:04 28° SSE 00:47:10 10° E visible
22 Nov 10.4 02:29:52 10° SW 02:47:27 65° SE 03:03:07 10° ENE visible
22 Nov 10.1 04:43:04 10° WSW 05:00:22 57° NW 05:13:05 10° NE visible
22 Nov 10.8 18:05:16 10° SW 18:07:45 12° SSW 18:10:38 10° S visible
22 Nov 11.6 22:30:26 10° S 22:36:40 14° SSE 22:43:49 10° SE visible
23 Nov 11.1 00:37:46 10° SSW 00:51:53 36° SSE 01:07:16 10° E visible
23 Nov 10.2 02:47:52 10° SW 03:05:48 80° SE 03:21:30 10° ENE visible
23 Nov 10.3 05:02:15 10° WSW 05:18:31 45° NW 05:30:38 10° NNE visible
23 Nov 11.5 22:47:39 10° SSW 22:56:00 18° SSE 23:05:50 10° ESE visible
24 Nov 10.8 00:55:21 10° SW 01:10:28 45° SE 01:26:49 10° E visible
24 Nov 10.1 03:09:21 19° WSW 03:24:03 83° NW 03:39:37 10° NE visible
24 Nov 10.5 05:21:57 10° W 05:36:46 34° NW 05:48:03 10° NNE visible
24 Nov 11.3 23:04:55 10° SSW 23:27:22 10° ESE 23:12:39 22° SSE visible
25 Nov 10.5 01:13:01 10° SW 01:29:05 57° SE 01:45:53 10° ENE visible
25 Nov 10.1 03:30:48 28° WSW 03:42:17 68° NW 03:57:32 10° NE visible
25 Nov 11.2 23:22:13 10° SSW 23:47:21 11° E 23:47:57 10° E visible
26 Nov 10.3 01:48:59 68° ESE 01:48:59 68° ESE 02:04:33 10° ENE visible
26 Nov 10.3 03:50:36 30° W 04:00:33 54° NW 04:15:14 10° NE visible
26 Nov 11.4 21:34:37 10° S 21:38:41 12° SSE 21:41:35 11° SE visible
26 Nov 11.3 23:39:38 10° SSW 00:06:32 13° E 00:08:00 10° E visible
27 Nov 10.2 02:08:06 73° ENE 02:08:06 73° ENE 02:22:54 10° NE visible
27 Nov 10.5 04:09:41 27° W 04:18:55 42° NW 04:32:50 10° NNE visible
27 Nov 11.3 21:50:54 10° S 21:57:14 16° SSE 21:57:14 16° SSE visible
27 Nov 11.4 23:57:07 10° SW 00:25:12 15° ENE 00:27:30 10° ENE visible
28 Nov 10.2 02:26:45 67° NNE 02:26:45 67° NNE 02:40:59 10° NE visible
28 Nov 10.7 04:28:17 22° WNW 04:37:26 33° NNW 04:50:19 10° NNE visible
28 Nov 11.1 22:07:45 10° SSW 22:13:04 20° SSE 22:13:04 20° SSE visible
